GFSGL_850_thetae_366.txt.gz
Theta_e
348 340 339 337 337 338 332 334 335 345 347 341 340 341 344 346 346 350 350 350 350 349 348 347 347 345 344 344 343 342 342 341 339 338 339 338 338 338 338 338 336 334 336
351 342 339 340 341 334 338 343 345 343 342 341 340 340 344 346 347 347 348 349 349 349 348 349 347 346 345 344 344 341 338 337 338 340 339 339 338 338 338 339 336 332 329
357 349 345 345 338 341 349 352 351 349 346 343 342 345 345 345 347 347 347 347 347 346 345 344 344 344 344 341 339 337 337 338 338 340 339 338 338 337 337 336 333 329 326
355 355 355 352 350 349 351 351 344 347 348 347 344 343 343 342 343 344 346 345 343 343 342 341 340 341 340 338 336 337 338 339 339 339 338 337 337 336 336 332 327 329 327
352 353 353 352 348 346 343 337 342 341 340 339 337 335 339 343 342 343 344 341 339 339 338 336 335 336 336 336 337 337 336 337 337 338 338 337 336 334 331 329 329 328 328
349 349 349 350 351 349 345 338 337 345 342 334 335 334 340 341 341 338 338 338 339 336 336 336 336 335 336 336 336 337 336 334 334 336 335 334 333 333 331 330 328 328 331
345 346 345 346 347 345 347 341 345 349 345 337 334 336 341 340 339 339 336 337 336 335 337 337 335 335 334 334 333 335 335 335 335 334 333 333 333 333 332 331 330 330 331
341 343 346 345 347 348 343 348 349 348 346 339 335 336 341 341 340 338 336 334 336 335 338 336 336 336 335 334 334 334 332 334 334 334 332 331 330 332 332 332 332 331 329
333 335 336 342 346 347 347 342 340 342 345 344 340 337 337 341 339 339 335 333 334 336 333 334 334 334 335 332 333 332 330 332 333 334 334 335 334 333 332 331 330 329 329
348 348 347 344 345 345 346 341 338 335 341 341 341 340 339 338 340 338 337 333 335 335 334 333 333 333 334 334 331 329 331 331 331 331 333 333 333 334 334 333 330 329 326
345 344 342 343 340 342 343 339 340 339 337 338 340 337 336 337 339 338 337 334 335 334 334 333 333 331 331 334 332 331 331 331 331 330 331 331 332 332 333 330 331 326 327
340 338 337 337 340 340 340 338 338 337 329 335 339 339 336 336 337 337 336 335 334 332 333 331 331 331 333 334 333 332 332 332 331 331 331 329 329 329 329 329 330 330 333
338 338 338 338 338 340 339 337 337 337 333 329 339 339 339 337 337 337 336 336 336 333 332 332 331 329 333 333 331 331 331 331 331 331 330 329 327 326 324 327 330 331 331
338 337 336 337 336 338 338 337 336 336 334 337 339 338 339 338 339 337 337 336 333 333 332 334 334 333 333 331 331 331 330 331 330 329 331 330 330 329 327 326 324 323 322
335 335 334 335 335 334 335 335 337 337 333 334 337 334 336 338 337 337 336 335 336 335 334 333 333 333 333 330 331 330 329 330 331 331 328 327 326 325 326 326 326 326 327
335 336 333 335 336 334 334 334 334 334 335 334 334 334 336 335 336 335 336 336 336 335 334 334 332 333 331 331 331 331 331 330 330 330 327 326 325 325 326 326 327 328 328
334 335 333 336 336 334 333 331 330 333 334 334 333 333 334 337 335 334 333 332 333 334 334 333 334 333 332 331 332 331 330 328 326 327 325 325 325 325 326 325 326 326 326
334 335 336 336 335 335 334 336 336 333 335 335 334 332 333 334 334 333 330 331 333 334 333 334 334 333 332 332 332 331 330 330 329 326 325 325 325 323 322 323 326 327 327
335 334 335 335 335 336 335 336 335 337 336 335 332 332 334 332 333 330 328 329 329 331 332 332 333 332 331 330 331 332 330 328 327 329 327 326 325 326 324 325 325 325 327
333 333 335 335 336 337 336 336 335 336 336 334 334 336 336 332 333 331 329 328 330 331 329 328 330 333 330 329 331 328 327 326 324 323 323 324 324 323 323 323 324 326 326
332 334 334 334 335 336 336 335 335 335 335 334 334 333 332 334 331 330 329 328 327 329 329 330 329 325 329 329 329 327 327 326 325 324 324 325 324 324 325 322 322 324 324
334 335 334 334 332 327 330 335 335 335 335 334 333 332 331 332 332 331 331 330 328 328 326 327 328 328 326 325 324 325 328 329 327 328 328 329 330 329 328 327 327 324 326
332 334 333 334 333 332 330 333 333 332 331 329 330 330 330 330 332 334 334 333 330 330 328 325 325 326 326 327 326 323 323 325 325 325 327 328 327 326 327 328 329 329 329
327 327 329 331 333 333 332 330 330 331 331 331 331 332 331 331 329 331 332 332 332 332 330 329 327 327 326 329 330 327 328 329 330 328 329 331 328 329 330 327 325 329 331
325 326 326 328 329 329 330 331 330 329 329 329 330 332 332 330 330 330 331 331 330 330 328 328 329 328 328 327 328 329 330 329 328 328 329 329 327 329 327 328 330 332 333
322 324 324 325 326 326 328 327 328 327 328 329 329 329 329 330 330 330 330 329 329 329 328 329 329 328 327 325 325 326 326 324 324 327 330 329 325 331 331 331 331 331 331

GFSGL_850_thetae_369.txt.gz
Theta_e
351 332 335 335 336 336 338 334 331 331 330 332 336 338 339 337 335 339 345 346 347 349 349 348 348 348 348 346 345 344 343 343 344 343 340 339 338 337 337 338 338 339 337
337 335 338 337 337 337 337 330 332 333 333 334 339 340 339 337 340 343 344 346 346 346 347 348 348 346 345 344 344 343 343 342 342 340 340 336 335 338 339 339 339 338 336
341 342 343 342 339 337 332 334 337 339 339 339 337 340 342 338 339 343 342 344 346 346 347 347 346 345 345 344 343 343 343 341 339 337 337 336 338 339 339 340 338 337 335
350 350 346 343 337 337 338 339 342 346 346 339 335 336 342 341 337 340 342 342 344 345 345 344 343 342 341 340 341 341 339 337 337 338 338 337 339 339 339 339 339 337 334
352 353 354 351 344 345 348 347 348 349 347 341 338 336 334 336 335 340 342 342 343 341 339 339 338 335 335 336 337 336 336 336 336 336 338 337 338 338 338 338 338 334 329
334 346 351 352 350 345 343 344 348 346 342 340 339 337 334 335 335 340 341 340 339 339 339 335 335 336 336 336 336 337 337 334 332 337 337 336 337 336 336 336 333 327 326
339 334 351 349 348 341 343 347 348 344 342 341 340 329 333 336 335 340 339 338 337 338 335 335 336 335 335 335 335 336 333 333 334 334 335 335 335 335 334 333 329 328 328
339 343 340 337 346 346 347 347 346 346 343 340 336 330 330 336 337 341 340 339 337 336 335 336 336 335 332 334 333 333 333 334 334 333 333 333 333 334 332 330 329 328 329
344 344 345 345 344 343 341 340 341 339 339 339 337 331 334 336 335 338 340 337 335 335 334 336 335 335 335 334 334 333 332 333 334 333 332 331 332 333 331 330 329 329 331
339 339 339 339 338 339 338 337 334 336 339 338 337 332 330 332 334 336 339 337 334 334 335 333 333 332 332 333 334 333 330 331 333 333 334 334 332 331 332 331 331 330 330
338 337 336 336 336 336 335 336 336 338 336 337 337 334 326 333 335 336 336 335 335 332 334 333 333 332 332 332 333 333 330 331 331 332 333 333 334 334 332 332 332 329 329
335 336 336 335 333 332 333 335 334 336 338 336 337 335 328 331 335 336 335 336 336 333 333 334 332 331 331 331 334 331 329 331 331 330 331 332 332 334 334 333 331 330 329
336 336 334 333 335 334 333 334 334 334 336 335 335 336 332 333 336 337 336 332 331 334 333 333 332 331 331 331 333 332 332 332 331 331 330 330 328 330 331 331 331 332 330
337 333 333 332 333 333 334 335 334 334 335 334 334 336 333 334 335 335 336 336 336 336 334 333 333 333 331 332 333 332 332 330 331 331 329 327 325 326 328 329 329 330 331
333 333 333 333 333 334 335 335 333 333 334 334 335 335 334 335 334 334 336 337 336 336 336 334 333 333 334 332 332 331 331 331 331 331 330 330 330 329 327 325 326 328 330
334 333 333 334 336 335 335 334 333 333 330 332 332 333 334 334 335 335 334 336 336 334 334 333 332 333 333 333 332 331 331 330 331 331 329 331 329 328 328 327 325 324 324
331 333 334 333 334 334 334 334 334 333 333 333 334 333 333 332 334 334 333 334 336 336 335 334 334 333 332 332 331 330 330 329 329 330 331 330 328 326 326 326 326 325 325
332 332 332 334 334 334 335 335 334 335 332 329 332 334 333 333 333 335 332 332 332 334 335 334 333 333 332 332 331 330 330 330 330 328 328 328 327 326 326 326 324 325 325
331 331 333 334 334 334 335 335 335 335 331 333 333 334 331 332 333 333 333 331 329 331 334 334 334 333 333 333 332 331 331 331 330 326 325 324 322 324 324 323 324 323 326
330 332 334 333 333 332 330 330 335 335 334 335 334 334 334 334 333 333 332 329 328 328 329 331 332 333 333 332 331 331 331 330 329 330 330 328 326 324 324 324 323 322 323
330 330 332 332 333 331 329 330 334 334 334 333 333 333 332 331 331 333 332 331 329 328 327 329 330 331 331 331 330 331 331 329 328 328 326 325 325 326 326 325 325 325 323
327 327 329 330 333 332 332 332 333 332 330 329 330 331 331 330 331 332 332 332 331 329 327 328 330 329 327 330 332 331 329 330 329 327 325 324 323 324 325 323 323 323 323
324 325 326 328 329 331 331 330 330 330 329 329 329 331 332 332 330 331 330 329 330 330 329 328 330 328 329 328 326 326 327 327 326 326 325 324 325 324 324 324 325 325 326
321 323 324 326 326 328 329 329 329 329 329 328 330 332 332 332 331 331 330 331 332 331 330 329 328 327 327 327 327 328 325 326 327 330 330 329 328 327 326 330 329 327 328
317 319 321 322 323 324 325 325 326 326 326 327 327 327 328 329 330 329 329 329 330 331 330 330 329 328 328 327 327 329 327 327 327 329 329 330 330 329 329 328 327 326 327
313 313 315 317 317 318 319 319 320 320 320 320 321 323 324 325 325 325 325 325 326 327 328 328 328 329 328 328 327 327 327 326 327 325 325 325 325 327 328 328 328 325 326

GFSGL_850_thetae_375.txt.gz
Theta_e
342 341 341 348 356 350 349 342 336 338 341 341 341 339 334 332 335 336 333 334 336 337 336 338 341 342 342 342 342 342 342 343 345 346 346 344 343 342 342 341 341 341 340
352 357 358 359 346 340 338 335 334 338 340 342 330 337 333 335 334 333 332 333 332 332 331 333 335 339 341 342 343 342 342 342 343 343 345 345 344 343 343 342 341 341 339
342 349 351 347 344 344 338 338 348 346 345 344 343 338 338 339 339 336 335 334 333 333 331 332 334 338 340 339 341 343 343 344 344 344 343 343 344 344 342 341 340 339 340
346 346 348 346 341 336 336 338 343 342 344 342 337 343 342 343 341 340 339 336 330 330 332 331 334 340 340 341 343 343 343 343 343 343 343 345 343 343 342 341 340 339 339
340 340 338 337 339 339 337 339 344 343 343 334 330 333 335 340 341 343 339 337 332 329 331 333 336 339 335 339 339 340 340 341 341 340 341 341 342 341 341 341 339 337 337
339 337 339 341 341 341 341 343 339 342 343 342 339 333 335 342 344 343 341 338 335 331 327 332 335 339 337 338 338 335 335 336 337 338 339 338 339 338 338 336 335 334 336
335 336 337 338 337 338 340 339 339 339 340 340 341 342 341 342 341 340 339 335 336 335 330 334 333 338 337 336 334 335 335 336 335 336 336 335 334 333 334 335 334 337 333
330 328 328 329 333 333 333 332 332 332 331 331 331 331 333 335 336 335 333 335 337 332 332 334 334 337 336 334 335 335 335 336 335 334 333 334 334 335 334 335 335 334 332
336 335 334 333 335 334 333 333 331 331 332 332 330 330 331 332 332 334 335 337 335 330 333 333 334 336 335 335 335 334 335 333 334 333 333 333 334 334 333 332 331 331 327
333 334 335 334 333 335 334 332 331 331 332 332 331 332 333 332 331 332 333 336 328 331 332 333 336 334 335 335 333 334 334 333 333 333 332 332 332 333 334 334 333 330 329
332 331 334 333 333 332 331 330 332 332 332 332 333 333 333 332 332 333 334 334 331 328 333 334 335 334 333 335 334 333 333 332 334 333 332 330 333 333 333 332 331 330 330
330 333 331 331 331 330 332 331 332 333 333 333 333 332 332 332 333 334 334 335 330 332 334 333 334 333 333 334 334 334 333 331 332 332 332 333 331 332 330 329 330 329 329
327 330 331 332 331 329 330 332 333 333 334 333 333 333 331 333 333 334 332 332 333 334 334 334 334 333 333 332 331 332 332 332 329 331 332 332 332 331 331 329 328 328 329
330 330 331 331 330 329 332 332 333 333 333 334 333 334 332 332 332 332 332 333 334 334 335 334 333 333 333 332 332 332 332 332 331 331 330 330 331 332 331 330 329 329 329
330 329 328 328 329 331 332 331 332 333 333 334 333 333 333 331 332 333 333 334 334 334 333 335 334 333 333 332 332 330 331 332 332 331 331 330 331 331 332 331 331 331 331
326 328 330 331 332 332 331 330 329 328 331 332 333 332 331 331 331 331 333 334 333 334 334 333 335 333 332 333 331 331 331 331 332 331 331 330 330 330 331 331 333 332 331
329 329 328 328 329 332 332 331 331 330 332 331 331 332 330 330 332 333 333 334 333 334 334 333 334 334 333 334 332 332 331 332 332 332 331 331 330 330 329 329 329 330 329
326 326 326 327 330 329 331 332 330 329 331 333 331 332 331 331 332 332 333 334 333 334 333 334 333 333 334 333 333 333 332 332 332 332 331 331 331 329 328 329 328 328 329
323 323 325 326 327 328 328 329 329 330 330 330 331 332 332 332 332 332 332 332 333 331 335 331 333 334 334 334 333 331 332 331 332 332 330 330 331 329 329 330 329 326 324
320 321 323 325 326 327 327 328 328 328 328 328 330 330 331 332 331 332 332 332 333 332 331 331 335 334 334 332 332 332 332 332 332 331 330 330 330 330 330 330 328 326 326
319 320 321 323 325 324 325 326 326 326 327 328 328 330 331 331 331 331 331 332 332 333 333 329 329 331 330 332 331 332 332 331 331 331 330 330 329 329 329 329 328 327 324
316 318 319 320 321 322 323 323 323 324 324 324 325 327 328 329 331 330 330 330 329 331 332 331 329 328 329 330 331 332 332 332 332 331 330 329 329 329 328 328 327 328 328
312 314 314 314 316 317 318 318 318 319 321 321 322 322 324 323 324 325 327 329 330 330 330 330 329 329 328 329 330 329 330 331 330 330 330 330 330 328 325 324 324 325 324
309 308 308 309 309 309 311 312 314 315 316 317 318 318 319 320 321 322 323 324 325 325 327 330 330 329 329 330 330 329 329 329 329 329 329 329 328 327 326 327 327 326 324
309 308 307 307 307 307 306 305 306 306 307 309 311 313 315 316 317 317 318 319 320 320 319 320 321 324 328 330 330 329 329 328 328 328 329 329 328 328 328 328 328 325 324
309 307 307 307 306 306 306 305 304 303 302 301 301 302 303 305 307 311 313 315 315 316 316 316 317 318 316 323 326 327 327 327 327 326 327 326 326 326 326 326 327 325 326

GFSGL_850_thetae_381.txt.gz
Theta_e
349 349 347 346 346 347 349 349 344 341 341 341 339 341 340 344 342 338 339 335 335 340 334 335 335 333 333 333 334 333 332 333 340 339 340 343 343 342 340 340 341 344 343
336 337 337 338 340 343 342 341 339 336 336 335 335 334 334 336 340 336 340 340 338 336 331 334 337 337 336 334 336 339 336 331 338 341 339 342 343 342 342 342 341 343 344
326 327 333 337 338 340 340 340 339 339 337 337 337 342 344 338 335 337 337 337 338 333 335 338 337 336 337 339 334 336 336 332 336 343 342 339 343 345 341 343 342 344 344
326 325 326 326 328 329 332 334 335 335 337 341 342 343 342 341 341 340 338 340 339 343 343 343 340 338 335 338 338 335 330 333 336 339 341 341 341 342 343 342 344 343 343
328 329 329 328 327 328 331 333 331 331 333 334 334 335 338 340 341 340 343 344 341 336 334 339 334 334 339 339 338 335 329 334 338 335 339 340 341 341 341 341 341 341 344
331 331 330 330 330 330 332 334 334 333 333 333 333 333 331 329 330 333 338 337 335 336 339 337 334 338 339 338 337 335 332 333 336 336 337 338 339 338 340 340 339 338 341
334 332 331 329 329 329 332 332 333 331 331 332 333 331 330 330 330 330 331 331 332 335 336 338 340 338 337 337 337 335 333 333 335 337 338 337 338 338 336 337 337 338 340
331 328 326 326 326 327 329 331 332 330 330 331 331 329 329 329 330 330 330 331 332 331 330 330 333 337 337 337 336 335 334 334 336 337 335 336 336 336 337 336 337 336 336
326 326 327 328 328 326 330 331 330 330 331 329 328 329 331 331 330 332 332 332 333 332 332 332 332 332 335 335 336 333 333 335 336 335 335 336 336 335 334 334 334 334 335
326 326 327 328 329 330 329 329 330 331 330 329 331 331 332 332 332 332 332 333 333 333 333 333 332 332 336 335 332 333 332 335 335 334 335 334 334 333 333 333 332 332 331
326 326 326 327 327 327 328 329 329 330 331 331 329 329 330 332 332 332 333 332 333 334 334 333 332 333 334 330 333 333 331 334 334 334 334 333 332 332 333 332 331 330 331
326 325 326 326 329 328 330 331 331 332 332 331 329 330 331 330 333 332 333 332 333 334 334 335 335 334 328 330 333 334 335 334 334 334 333 332 331 332 331 330 329 328 328
325 324 325 326 326 327 327 329 331 331 329 331 328 330 332 331 331 332 331 331 332 333 334 334 334 331 330 333 334 334 334 333 334 334 333 332 331 331 330 329 328 328 326
322 323 323 324 326 327 327 328 328 328 329 329 330 327 328 330 331 332 331 332 331 331 331 331 332 332 333 334 334 334 333 332 332 333 332 331 331 330 330 329 329 327 324
318 320 321 322 324 325 326 326 327 327 327 327 328 329 327 330 331 331 331 331 331 331 330 331 334 335 334 334 334 334 333 333 332 332 331 331 331 331 330 329 329 328 325
315 319 319 320 322 323 324 324 325 326 327 327 328 329 329 329 331 331 330 330 331 331 332 332 332 333 334 333 333 333 334 333 332 331 330 330 330 331 330 330 329 329 329
316 319 318 320 321 322 323 323 324 326 325 325 327 329 329 330 331 331 332 332 331 332 335 333 332 332 335 333 332 332 332 332 332 332 331 330 330 330 330 329 329 329 329
316 317 317 319 319 321 321 321 322 322 322 324 325 325 328 329 330 330 331 332 332 332 332 331 331 333 331 332 332 331 332 332 331 331 331 331 330 330 332 330 329 330 330
311 313 315 317 318 318 318 318 319 319 320 321 323 324 326 327 328 330 330 330 330 331 331 331 331 332 332 333 332 332 331 332 331 331 331 331 331 330 331 331 331 330 330
308 308 310 311 312 314 315 315 316 317 317 317 317 318 321 324 324 324 324 327 329 329 329 329 328 329 331 331 333 332 332 331 332 331 331 330 331 331 331 331 331 331 331
309 308 306 308 307 307 308 311 312 314 314 314 314 315 317 318 318 318 319 321 322 324 325 327 328 328 328 329 330 331 332 332 332 331 332 331 331 331 331 332 330 331 331
309 309 308 307 307 306 305 305 306 307 306 305 306 308 311 314 315 315 315 316 317 319 320 321 324 327 328 327 328 329 331 332 332 331 331 331 331 331 331 331 330 329 328
309 309 308 308 307 307 306 304 303 303 304 304 304 303 300 300 301 305 310 312 314 314 316 317 318 321 322 327 328 329 329 330 330 331 332 332 332 330 331 332 330 330 329
309 308 308 308 307 307 306 306 304 303 303 303 303 303 302 301 300 300 299 300 302 307 311 313 314 314 315 316 318 325 327 328 330 330 331 331 331 331 331 332 332 331 330
310 309 308 308 308 307 307 306 305 304 303 302 302 302 302 301 301 301 300 300 300 300 300 300 303 308 312 313 314 318 319 326 329 329 329 330 330 331 331 331 331 331 330
310 309 309 308 308 307 307 307 306 305 304 303 303 302 302 301 301 301 301 301 301 301 301 300 300 300 300 301 305 311 314 317 322 325 327 328 330 330 330 331 330 330 329